Showing default

YAOGAN-43 02F, 60950

Orbit data source: Space-Track

YAOGAN-43 02F, 60950 is a payload satellite owned by PLA GAD (CN) in LEO that was launched on Tue, 03 Sep 2024 UTC via a CHANG ZHENG 4B launch vehicle from the Xichang Space Center, China (XSC). Payload-class satellites include a variety of spacecraft equipped with specific instruments for various scientific and technological missions. These include communications satellites like Starlink; space stations such as the ISS; scientific satellites like the Hubble; Earth observation satellites from companies like Planet Labs, Umbra, and HawkEye 360; GPS; miniature CubeSats for education and research; and military/defense satellites.

Loading next visibility...
Identifier
60950, 2024-156F
Orbit
LEO
Country
Flag of CNCN / PRC
Related business
Manufacturer
SAST
Mission
Operational Defense Communications
Bus & Motor
Unknown
Mass
~300 kg wet, ~300 kg dry
Launch date (UTC)
2024-09-03 (1 year ago)
Launch vehicle
CHANG ZHENG 4B
Launch site
Xichang Space Center, China (XSC)
Object type
Payload
Rocket body
Debris
Shape & HBR
Box + 2 Pan, 2.5 m
Radar Cross Section
11.063 m², Large (>1 m²)

Expand to show TLE details & history
Last TLE update: 2 weeks ago

TLE from 2 weeks ago
0 YAOGAN-43 02F
1 60950U 24156F   25244.35986002  .00015484  00000-0  63843-3 0  9997
2 60950  34.9915 214.4382 0001154 236.1390 123.9215 15.23236528 55383
Epoch: 2025-09-01T08:38Z
TLE epoch observation values (Epoch: 2025-09-01T08:38:11.905Z)
Latitude
-0.00002°
Longitude
104.122°
Altitude
495.435 km
Speed
7.619 km/s
True Right ascension
14h 17m 45s
True Declination
0° 00' 00"
Sunlit
Object was in daylight at epoch
Visualization orbit readout
Latitude
Unknown
Longitude
Unknown
Altitude
Unknown
Speed
Unknown
Apparent Right ascension
Unknown
Apparent Declination
Unknown
Sunlit
N/A
Visualization observer readout
Local Sidereal Time
05:50:10
Azimuth
Unknown
Elevation
Unknown
Doppler factor
Unknown
Orbital elements
Apogee altitude
500.131 km
Perigee altitude
498.544 km
Semi-major axis
6,877.475 km
Eccentricity
0.00012
Inclination
34.9915°
RAAN
214.4382°
Arg. of periapsis
236.139°
True anomaly
123.93247°
Mean anomaly
123.9215°
Eccentric anomaly
123.92699°
Mean motion
3.80539 °/min
Orbital period
94.6 mins
BSTAR
0.00063843
Loading maneuver chart data...
Computing Atmospheric mass density...
Loading historical data...
Loading historical data...
Loading historical data...
Loading historical data...
Loading historical data...
Loading historical data...
Loading historical data...

Documentation

Showing up to 5 results
|